Temp
-11 -10 -10 -10 -9 -8 -7 -7 -5 -4 -2 -1 0 3 5 6 7 8 8 8 9 8
-11 -11 -10 -10 -9 -9 -8 -7 -6 -5 -4 -2 -1 2 4 5 6 8 8 9 8 8
-12 -12 -11 -10 -10 -9 -8 -7 -6 -5 -5 -4 -2 0 2 4 5 7 8 8 8 7
-12 -12 -11 -11 -10 -9 -8 -8 -7 -6 -5 -4 -2 -1 1 2 4 6 7 7 8 7
-13 -12 -12 -11 -11 -10 -9 -8 -7 -7 -6 -5 -3 -2 -1 1 4 5 6 7 7 6
-13 -13 -12 -11 -11 -10 -9 -8 -7 -7 -6 -5 -4 -2 -1 1 3 4 6 7 7 6
-13 -13 -13 -12 -11 -10 -10 -9 -8 -8 -7 -6 -5 -3 -2 0 2 4 5 6 7 7
-13 -13 -13 -12 -11 -11 -10 -9 -9 -8 -7 -5 -5 -4 -2 -1 0 3 5 6 7 7
-13 -13 -13 -12 -11 -11 -10 -9 -9 -8 -7 -6 -5 -4 -3 -1 -0 2 4 5 6 7
-13 -13 -13 -12 -12 -11 -11 -10 -9 -8 -8 -6 -6 -5 -3 -2 -1 1 3 4 5 6
-13 -13 -13 -13 -12 -11 -11 -11 -10 -8 -8 -7 -6 -5 -4 -2 -1 0 1 3 4 5
-14 -14 -14 -13 -13 -12 -12 -11 -10 -9 -9 -7 -6 -6 -5 -4 -2 -1 -0 1 3 4
-14 -14 -14 -14 -13 -13 -12 -12 -11 -10 -9 -8 -7 -6 -6 -5 -4 -3 -1 -1 0 2
-15 -14 -14 -14 -14 -14 -13 -12 -11 -10 -10 -9 -8 -7 -7 -6 -5 -4 -3 -1 -1 -1
Height
1491 1484 1478 1471 1464 1458 1452 1446 1442 1436 1435 1431 1432 1434 1436 1437 1443 1447 1452 1455 1458 1461
1487 1481 1475 1469 1462 1455 1449 1442 1439 1436 1430 1426 1427 1424 1424 1429 1434 1438 1443 1447 1449 1454
1483 1478 1472 1465 1458 1451 1445 1438 1431 1425 1423 1419 1416 1414 1416 1419 1423 1428 1432 1437 1441 1445
1479 1474 1468 1461 1454 1447 1441 1435 1429 1423 1417 1413 1406 1405 1407 1411 1415 1418 1423 1429 1434 1438
1475 1470 1464 1458 1451 1444 1436 1431 1424 1419 1412 1405 1401 1401 1403 1402 1400 1409 1413 1418 1424 1429
1472 1466 1460 1453 1447 1441 1433 1425 1419 1413 1408 1401 1399 1395 1394 1392 1393 1399 1404 1410 1415 1421
1468 1462 1455 1450 1443 1436 1428 1420 1414 1409 1402 1399 1389 1383 1381 1381 1382 1390 1396 1401 1406 1412
1465 1459 1452 1446 1440 1432 1425 1417 1410 1402 1393 1384 1382 1378 1375 1376 1376 1382 1386 1391 1397 1403
1462 1455 1448 1443 1437 1430 1421 1411 1403 1396 1389 1383 1377 1377 1375 1370 1374 1372 1377 1382 1388 1396
1460 1453 1446 1439 1432 1426 1418 1409 1404 1397 1389 1380 1375 1370 1366 1368 1365 1366 1369 1373 1380 1388
1459 1452 1445 1439 1432 1426 1419 1413 1408 1397 1387 1382 1377 1367 1364 1358 1359 1358 1361 1368 1373 1379
1457 1451 1444 1438 1431 1425 1417 1411 1403 1395 1390 1381 1376 1368 1362 1356 1354 1356 1358 1363 1368 1372
1454 1449 1443 1438 1431 1425 1419 1411 1404 1395 1387 1381 1371 1364 1359 1353 1351 1353 1352 1358 1362 1369
1452 1446 1441 1436 1430 1425 1418 1411 1404 1399 1393 1386 1376 1367 1361 1357 1356 1354 1352 1354 1360 1365
Wind_Speed
28 30 31 32 33 33 34 34 32 30 28 26 30 31 33 38 43 40 42 44 44 46
29 28 30 31 31 32 32 33 32 30 30 26 30 31 31 38 41 45 46 45 45 45
30 29 29 30 30 30 31 31 32 32 30 27 27 28 31 33 38 46 47 43 43 46
30 28 28 30 31 31 31 30 30 30 31 28 25 25 30 30 33 45 47 42 46 46
30 29 28 28 30 31 31 29 29 29 29 28 25 24 30 28 32 50 49 47 45 49
29 29 28 28 30 30 30 30 27 28 27 26 25 24 28 26 25 49 50 49 44 49
30 30 29 28 30 31 30 29 28 26 26 25 23 22 23 30 18 43 52 51 43 48
30 30 28 27 29 31 30 28 26 26 23 23 22 22 22 30 20 39 54 48 46 44
31 29 28 27 28 31 31 28 26 23 22 21 21 20 20 24 21 28 52 46 49 44
31 30 28 27 27 30 32 29 25 22 22 21 20 19 19 22 22 23 42 40 48 46
30 30 29 27 25 27 30 29 25 23 23 22 23 19 17 15 30 20 25 42 46 50
28 30 30 28 26 26 30 29 26 25 24 23 22 26 18 7 9 25 18 35 45 47
27 28 29 28 26 24 26 28 27 25 25 25 20 21 28 16 7 7 19 21 31 41
26 27 28 28 25 23 24 26 25 24 24 25 23 21 21 18 15 8 9 20 24 28
Wind_Direction
332 330 328 329 329 326 321 320 315 305 295 285 262 233 222 223 239 233 233 239 235 233
332 330 328 326 327 326 323 317 313 307 300 290 276 240 228 225 232 234 233 241 236 232
333 331 329 327 327 327 324 319 313 310 304 294 281 257 234 225 225 233 234 234 229 226
332 331 330 329 329 328 326 322 316 311 306 297 287 268 245 234 219 233 232 231 231 230
334 333 332 331 331 330 328 325 317 311 307 302 292 273 259 241 209 232 232 225 226 224
335 336 334 333 333 332 331 326 320 313 309 303 292 278 262 240 216 228 231 225 225 222
338 338 336 335 335 335 334 332 325 317 309 301 299 291 273 245 236 227 229 226 228 224
340 338 336 336 338 337 340 338 331 323 317 312 306 296 285 249 250 215 226 222 220 224
341 340 339 338 341 341 346 345 340 337 335 325 313 298 282 254 244 211 218 220 220 221
342 343 342 340 341 344 352 351 348 350 352 346 329 313 288 255 235 211 214 221 219 215
341 344 344 342 341 342 350 355 357 0 4 359 9 354 299 272 233 209 211 222 225 216
339 342 344 343 341 341 344 352 357 10 9 7 13 21 3 326 272 227 203 216 224 221
336 338 340 342 341 338 337 344 352 7 13 15 11 21 14 1 336 255 225 212 217 219
330 333 336 340 340 336 333 336 345 356 9 15 21 16 15 14 350 308 240 219 218 217